^^
B2 Weather Station Historical Data
Daily Summary for April 5, 2019 Units:  Metric    English   Both
Daily Weekly Monthly Yearly Custom
  High: Low: Average:
Temperature: 13 °C 4 °C 8.5 °C
Dew Point: 11.1 °C 2.9 °C 7.2 °C
Humidity: 94% 86% 91%
Wind Speed: 22.2km/h 0km/h 5.5km/h
Wind Gust: 14.6km/h - -
Wind- - SSE
Pressure: 1021.2 hPa 1017.8 hPa -
Precipitation: 0 mm    
Historical Graphs
 
 
Tabular Data for April 5, 2019
Time Temperature Dew Point Pressure Wind Wind Speed Wind Gust Humidity Rainfall Rate (Hourly) solar
00:04 5 °C 4.1 °C 1021.2 hPa East 18.5 km/h 14 km/h 94% 0.51 mm 0.00 W/m2
00:09 4.9 °C 4.1 °C 1020.9 hPa ESE 22.2 km/h 13.2 km/h 94% 0.51 mm 0.00 W/m2
00:14 4.9 °C 3.9 °C 1020.9 hPa East 16.7 km/h 14.6 km/h 93% 0.51 mm 0.00 W/m2
00:19 4.9 °C 4 °C 1020.9 hPa East 16.1 km/h 10.8 km/h 94% 0.25 mm 0.00 W/m2
00:24 4.8 °C 3.7 °C 1020.9 hPa East 20.4 km/h 11.3 km/h 93% 0.25 mm 0.00 W/m2
00:29 4.7 °C 3.7 °C 1020.9 hPa East 20.4 km/h 8.9 km/h 93% 0.25 mm 0.00 W/m2
00:34 4.7 °C 3.8 °C 1020.9 hPa East 16.7 km/h 10.3 km/h 94% 0.25 mm 0.00 W/m2
00:39 4.6 °C 3.7 °C 1020.9 hPa ESE 14.8 km/h 11.1 km/h 94% 0.25 mm 0.00 W/m2
00:44 4.6 °C 3.7 °C 1020.9 hPa ESE 16.7 km/h 11.6 km/h 94% 0.25 mm 0.00 W/m2
00:49 4.6 °C 3.5 °C 1020.9 hPa ESE 13 km/h 11.9 km/h 93% 0 mm 0.00 W/m2
00:54 4.5 °C 3.4 °C 1020.9 hPa ESE 14.8 km/h 11.3 km/h 93% 0 mm 0.00 W/m2
00:59 4.4 °C 3.4 °C 1020.9 hPa ESE 16.1 km/h 12.2 km/h 93% 0 mm 0.00 W/m2
01:04 4.4 °C 3.4 °C 1020.9 hPa ESE 18.5 km/h 13.2 km/h 93% 0 mm 0.00 W/m2
01:09 4.4 °C 3.3 °C 1020.9 hPa East 14.8 km/h 11.4 km/h 93% 0 mm 0.00 W/m2
01:14 4.3 °C 3.3 °C 1020.9 hPa ESE 14.8 km/h 13.4 km/h 93% 0 mm 0.00 W/m2
01:19 4.3 °C 3.3 °C 1020.9 hPa East 18.5 km/h 11.3 km/h 93% 0 mm 0.00 W/m2
01:24 4.3 °C 3.2 °C 1020.5 hPa ESE 16.7 km/h 10.6 km/h 93% 0 mm 0.00 W/m2
01:29 4.2 °C 3.2 °C 1020.5 hPa ESE 14.8 km/h 9.8 km/h 93% 0 mm 0.00 W/m2
01:34 4.2 °C 3.1 °C 1020.5 hPa ESE 16.7 km/h 13.5 km/h 93% 0 mm 0.00 W/m2
01:40 4.2 °C 3.1 °C 1020.5 hPa ESE 16.7 km/h 11.7 km/h 93% 0 mm 0.00 W/m2
01:44 4.1 °C 3.1 °C 1020.2 hPa ESE 14.8 km/h 12.7 km/h 93% 0 mm 0.00 W/m2
01:49 4.1 °C 3.1 °C 1020.2 hPa ESE 13 km/h 11.1 km/h 93% 0 mm 0.00 W/m2
01:54 4.1 °C 3 °C 1019.9 hPa ESE 18.5 km/h 10.6 km/h 93% 0 mm 0.00 W/m2
01:59 4.1 °C 3 °C 1019.9 hPa ESE 16.7 km/h 12.1 km/h 93% 0 mm 0.00 W/m2
02:04 4.1 °C 3 °C 1019.9 hPa ESE 20.4 km/h 13.4 km/h 93% 0 mm 0.00 W/m2
02:09 4.1 °C 3 °C 1019.9 hPa East 16.7 km/h 10.5 km/h 93% 0 mm 0.00 W/m2
02:14 4 °C 2.9 °C 1019.5 hPa ESE 18.5 km/h 10.9 km/h 93% 0 mm 0.00 W/m2
02:19 4 °C 2.9 °C 1019.5 hPa ESE 13 km/h 11.6 km/h 93% 0 mm 0.00 W/m2
02:24 4 °C 2.9 °C 1019.5 hPa ESE 16.7 km/h 14.2 km/h 93% 0 mm 0.00 W/m2
02:29 4 °C 2.9 °C 1019.5 hPa ESE 16.7 km/h 9.8 km/h 93% 0 mm 0.00 W/m2
02:34 4 °C 2.9 °C 1019.5 hPa ESE 11.3 km/h 11.6 km/h 93% 0 mm 0.00 W/m2
02:39 4 °C 2.9 °C 1019.5 hPa ESE 13 km/h 6.9 km/h 93% 0 mm 0.00 W/m2
02:44 4 °C 2.9 °C 1019.2 hPa ESE 14.8 km/h 9.8 km/h 93% 0 mm 0.00 W/m2
02:49 4 °C 2.9 °C 1019.2 hPa East 13 km/h 13 km/h 93% 0 mm 0.00 W/m2
02:54 4 °C 2.9 °C 1019.2 hPa ESE 14.8 km/h 10 km/h 93% 0 mm 0.00 W/m2
02:59 4 °C 2.9 °C 1019.2 hPa ESE 13 km/h 8.7 km/h 93% 0 mm 0.00 W/m2
03:04 4 °C 2.9 °C 1019.2 hPa ESE 13 km/h 9.5 km/h 93% 0 mm 0.00 W/m2
03:09 4 °C 2.9 °C 1019.2 hPa East 13 km/h 8.5 km/h 93% 0 mm 0.00 W/m2
03:14 4 °C 2.9 °C 1019.2 hPa ESE 14.8 km/h 12.2 km/h 93% 0 mm 0.00 W/m2
03:19 4.1 °C 3 °C 1019.2 hPa ESE 18.5 km/h 12.1 km/h 93% 0 mm 0.00 W/m2
03:24 4.1 °C 3 °C 1019.2 hPa ESE 14.8 km/h 10.1 km/h 93% 0 mm 0.00 W/m2
03:29 4.1 °C 3 °C 1018.8 hPa ESE 14.5 km/h 10.3 km/h 93% 0 mm 0.00 W/m2
03:34 4.1 °C 3 °C 1018.8 hPa ESE 16.7 km/h 8.7 km/h 93% 0 mm 0.00 W/m2
03:39 4.1 °C 3 °C 1018.8 hPa SE 5.6 km/h 6.4 km/h 93% 0 mm 0.00 W/m2
03:44 4.1 °C 3 °C 1018.8 hPa ESE 14.8 km/h 7.2 km/h 93% 0 mm 0.00 W/m2
03:49 4.1 °C 3.1 °C 1018.8 hPa SE 11.1 km/h 7.2 km/h 93% 0 mm 0.00 W/m2
03:54 4.1 °C 3.1 °C 1018.8 hPa ESE 11.3 km/h 8.7 km/h 93% 0 mm 0.00 W/m2
03:59 4.1 °C 3.1 °C 1018.8 hPa ESE 8 km/h 9.2 km/h 93% 0 mm 0.00 W/m2
04:04 4.1 °C 3.1 °C 1018.8 hPa ESE 9.3 km/h 7.4 km/h 93% 0 mm 0.00 W/m2
04:09 4.2 °C 3.1 °C 1018.5 hPa East 11.1 km/h 9.2 km/h 93% 0 mm 0.00 W/m2
04:14 4.2 °C 3.1 °C 1018.5 hPa ESE 11.1 km/h 5.6 km/h 93% 0 mm 0.00 W/m2
04:19 4.2 °C 3.1 °C 1018.8 hPa ESE 5.6 km/h 5 km/h 93% 0 mm 0.00 W/m2
04:24 4.2 °C 3.3 °C 1018.5 hPa ESE 13 km/h 7.2 km/h 94% 0 mm 0.00 W/m2
04:29 4.2 °C 3.3 °C 1018.8 hPa ESE 7.4 km/h 5.8 km/h 94% 0 mm 0.00 W/m2
04:34 4.2 °C 3.3 °C 1018.8 hPa ESE 9.3 km/h 7.2 km/h 94% 0 mm 0.00 W/m2
04:39 4.2 °C 3.3 °C 1018.8 hPa ESE 11.3 km/h 8.5 km/h 94% 0 mm 0.00 W/m2
04:44 4.2 °C 3.3 °C 1018.8 hPa ESE 7.4 km/h 5.5 km/h 94% 0 mm 0.00 W/m2
04:49 4.3 °C 3.4 °C 1018.5 hPa ESE 11.1 km/h 8.2 km/h 94% 0 mm 0.00 W/m2
04:54 4.2 °C 3.3 °C 1018.5 hPa SE 11.3 km/h 6.9 km/h 94% 0 mm 0.00 W/m2
04:59 4.3 °C 3.2 °C 1018.5 hPa ESE 7.4 km/h 6 km/h 93% 0 mm 0.00 W/m2
05:04 4.3 °C 3.4 °C 1018.5 hPa SE 8 km/h 6 km/h 94% 0 mm 0.00 W/m2
05:10 4.3 °C 3.2 °C 1018.5 hPa ESE 7.4 km/h 6.4 km/h 93% 0 mm 0.00 W/m2
05:14 4.3 °C 3.4 °C 1018.5 hPa ESE 6.4 km/h 4.7 km/h 94% 0 mm 0.00 W/m2
05:19 4.3 °C 3.4 °C 1018.5 hPa ESE 5.6 km/h 3.7 km/h 94% 0 mm 0.00 W/m2
05:24 4.3 °C 3.4 °C 1018.8 hPa SE 6.4 km/h 5.5 km/h 94% 0 mm 0.00 W/m2
05:29 4.3 °C 3.4 °C 1018.5 hPa SE 7.4 km/h 5.3 km/h 94% 0 mm 0.00 W/m2
05:34 4.3 °C 3.4 °C 1018.5 hPa SE 5.6 km/h 4.8 km/h 94% 0 mm 0.00 W/m2
05:39 4.3 °C 3.4 °C 1018.8 hPa SE 7.4 km/h 6 km/h 94% 0 mm 0.00 W/m2
05:44 4.3 °C 3.4 °C 1018.5 hPa ESE 8 km/h 6.8 km/h 94% 0 mm 0.00 W/m2
05:50 4.3 °C 3.4 °C 1018.8 hPa ESE 7.4 km/h 6.3 km/h 94% 0 mm 0.00 W/m2
05:54 4.4 °C 3.5 °C 1018.5 hPa SE 5.6 km/h 3.5 km/h 94% 0 mm 0.00 W/m2
05:59 4.4 °C 3.6 °C 1018.5 hPa SE 5.6 km/h 4.3 km/h 94% 0 mm 0.00 W/m2
06:04 4.4 °C 3.6 °C 1018.5 hPa SE 7.4 km/h 4 km/h 94% 0 mm 0.00 W/m2
06:09 4.4 °C 3.6 °C 1018.5 hPa SE 5.6 km/h 2.7 km/h 94% 0 mm 0.00 W/m2
06:14 4.5 °C 3.6 °C 1018.5 hPa SE 5.6 km/h 4.3 km/h 94% 0 mm 0.00 W/m2
06:19 4.5 °C 3.6 °C 1018.5 hPa ESE 5.6 km/h 2.6 km/h 94% 0 mm 0.00 W/m2
06:24 4.6 °C 3.7 °C 1018.5 hPa ESE 3.7 km/h 2.7 km/h 94% 0 mm 0.00 W/m2
06:29 4.6 °C 3.7 °C 1018.5 hPa ESE 3.7 km/h 2.4 km/h 94% 0 mm 0.00 W/m2
06:34 4.6 °C 3.7 °C 1018.5 hPa ESE 3.7 km/h 0.6 km/h 94% 0 mm 0.00 W/m2
06:39 4.6 °C 3.7 °C 1018.5 hPa ESE 5.6 km/h 1.6 km/h 94% 0 mm 0.00 W/m2
06:44 4.7 °C 3.8 °C 1018.5 hPa ESE 5.6 km/h 2.7 km/h 94% 0 mm 0.00 W/m2
06:49 4.7 °C 3.8 °C 1018.5 hPa ESE 5.6 km/h 2.3 km/h 94% 0 mm 0.00 W/m2
06:54 4.7 °C 3.8 °C 1018.8 hPa Calm     94% 0 mm 0.00 W/m2
06:59 4.7 °C 3.8 °C 1018.8 hPa ESE 5.6 km/h 2.3 km/h 94% 0 mm 5.00 W/m2
07:04 4.8 °C 3.9 °C 1018.8 hPa ESE 5.6 km/h 0.6 km/h 94% 0 mm 9.00 W/m2
07:09 4.8 °C 3.9 °C 1018.8 hPa ESE 3.7 km/h 0.3 km/h 94% 0 mm 12.00 W/m2
07:14 4.8 °C 3.9 °C 1018.8 hPa ESE 1.9 km/h   94% 0 mm 16.00 W/m2
07:19 4.9 °C 4 °C 1018.8 hPa Calm     94% 0 mm 18.00 W/m2
07:24 4.9 °C 4.1 °C 1018.8 hPa Calm     94% 0 mm 21.00 W/m2
07:29 5 °C 4.1 °C 1018.8 hPa Calm     94% 0 mm 33.00 W/m2
07:34 5.1 °C 4.2 °C 1018.8 hPa ESE 1.6 km/h 0.5 km/h 94% 0 mm 42.00 W/m2
07:39 5.1 °C 4.2 °C 1018.8 hPa ESE 1.9 km/h 1.4 km/h 94% 0 mm 42.00 W/m2
07:44 5.2 °C 4.3 °C 1018.8 hPa ESE 1.9 km/h 0.8 km/h 94% 0 mm 42.00 W/m2
07:49 5.2 °C 4.3 °C 1018.8 hPa ESE 3.7 km/h 1.9 km/h 94% 0 mm 40.00 W/m2
07:54 5.3 °C 4.4 °C 1018.8 hPa East 3.7 km/h 3.2 km/h 94% 0 mm 40.00 W/m2
07:59 5.4 °C 4.6 °C 1018.8 hPa East 3.2 km/h 1.8 km/h 94% 0 mm 42.00 W/m2
08:04 5.4 °C 4.6 °C 1018.8 hPa Calm     94% 0 mm 47.00 W/m2
08:09 5.6 °C 4.7 °C 1018.8 hPa East 3.7 km/h 2.4 km/h 94% 0 mm 58.00 W/m2
08:14 5.7 °C 4.8 °C 1018.8 hPa Calm     94% 0 mm 54.00 W/m2
08:19 5.7 °C 4.8 °C 1018.8 hPa East 3.7 km/h 2.3 km/h 94% 0 mm 58.00 W/m2
08:24 5.8 °C 4.9 °C 1018.8 hPa East 3.7 km/h 1.4 km/h 94% 0 mm 70.00 W/m2
08:29 5.9 °C 5 °C 1018.8 hPa East 1.9 km/h 0.8 km/h 94% 0 mm 67.00 W/m2
08:34 5.9 °C 5.1 °C 1018.8 hPa East 1.9 km/h   94% 0 mm 77.00 W/m2
08:39 6.1 °C 5.2 °C 1018.8 hPa Calm     94% 0 mm 88.00 W/m2
08:44 6.1 °C 5.2 °C 1018.5 hPa East 3.7 km/h 1.9 km/h 94% 0 mm 109.00 W/m2
08:49 6.3 °C 5.4 °C 1018.8 hPa East 3.7 km/h 0.3 km/h 94% 0 mm 121.00 W/m2
08:54 6.4 °C 5.5 °C 1018.8 hPa East 1.9 km/h   94% 0 mm 123.00 W/m2
08:59 6.5 °C 5.6 °C 1018.8 hPa Calm     94% 0 mm 111.00 W/m2
09:04 6.6 °C 5.7 °C 1018.8 hPa East 3.7 km/h 1 km/h 94% 0 mm 107.00 W/m2
09:09 6.7 °C 5.8 °C 1018.8 hPa East 3.7 km/h 1 km/h 94% 0 mm 114.00 W/m2
09:14 6.8 °C 5.7 °C 1018.8 hPa Calm     93% 0 mm 105.00 W/m2
09:19 6.8 °C 5.8 °C 1018.8 hPa East 3.2 km/h 1.4 km/h 93% 0 mm 102.00 W/m2
09:24 6.9 °C 5.9 °C 1018.8 hPa East 3.2 km/h 0.8 km/h 93% 0 mm 100.00 W/m2
09:29 7.1 °C 6 °C 1018.8 hPa East 1.9 km/h   93% 0 mm 107.00 W/m2
09:34 7.1 °C 6 °C 1018.8 hPa Calm     93% 0 mm 113.00 W/m2
09:40 7.1 °C 6.1 °C 1018.8 hPa East 5.6 km/h 2.7 km/h 93% 0 mm 109.00 W/m2
09:44 7.2 °C 6.2 °C 1018.8 hPa East 3.7 km/h 0.3 km/h 93% 0 mm 107.00 W/m2
09:49 7.3 °C 6.2 °C 1018.8 hPa East 3.7 km/h 0.5 km/h 93% 0 mm 113.00 W/m2
09:54 7.3 °C 6.3 °C 1018.8 hPa Calm     93% 0 mm 105.00 W/m2
09:59 7.4 °C 6.4 °C 1018.8 hPa Calm     93% 0 mm 135.00 W/m2
10:04 7.4 °C 6.4 °C 1018.8 hPa Calm     93% 0 mm 153.00 W/m2
10:09 7.5 °C 6.4 °C 1018.8 hPa Calm     93% 0 mm 163.00 W/m2
10:14 7.6 °C 6.6 °C 1018.8 hPa Calm     93% 0 mm 142.00 W/m2
10:19 7.7 °C 6.7 °C 1018.8 hPa Calm     93% 0 mm 174.00 W/m2
10:24 7.8 °C 6.7 °C 1018.8 hPa Calm     93% 0 mm 197.00 W/m2
10:29 7.9 °C 6.8 °C 1018.8 hPa Calm     93% 0 mm 221.00 W/m2
10:34 8.1 °C 7 °C 1018.8 hPa Calm     93% 0 mm 258.00 W/m2
10:39 8.2 °C 7.2 °C 1019.2 hPa Calm     93% 0 mm 264.00 W/m2
10:45 8.4 °C 7.3 °C 1019.2 hPa Calm     93% 0 mm 230.00 W/m2
10:49 8.6 °C 7.3 °C 1019.2 hPa Calm     92% 0 mm 213.00 W/m2
10:54 8.6 °C 7.4 °C 1019.2 hPa Calm     92% 0 mm 236.00 W/m2
10:59 8.7 °C 7.4 °C 1019.2 hPa Calm     92% 0 mm 260.00 W/m2
11:04 8.9 °C 7.7 °C 1019.2 hPa Calm     92% 0 mm 288.00 W/m2
11:09 9.1 °C 7.9 °C 1019.2 hPa Calm     92% 0 mm 272.00 W/m2
11:14 9.3 °C 8.1 °C 1019.2 hPa Calm     92% 0 mm 260.00 W/m2
11:19 9.3 °C 7.9 °C 1019.2 hPa Calm     91% 0 mm 281.00 W/m2
11:24 9.4 °C 8.1 °C 1019.2 hPa Calm     91% 0 mm 255.00 W/m2
11:30 9.6 °C 8.4 °C 1019.2 hPa Calm     92% 0 mm 283.00 W/m2
11:35 9.7 °C 8.3 °C 1019.2 hPa Calm     91% 0 mm 281.00 W/m2
11:39 9.8 °C 8.4 °C 1019.5 hPa Calm     91% 0 mm 251.00 W/m2
11:44 9.8 °C 8.4 °C 1019.5 hPa Calm     91% 0 mm 211.00 W/m2
11:49 9.8 °C 8.4 °C 1019.5 hPa Calm     91% 0 mm 207.00 W/m2
11:54 9.9 °C 8.5 °C 1019.5 hPa Calm     91% 0 mm 225.00 W/m2
11:59 9.9 °C 8.4 °C 1019.2 hPa Calm     90% 0 mm 216.00 W/m2
12:04 10.1 °C 8.5 °C 1019.5 hPa Calm     90% 0 mm 221.00 W/m2
12:09 10.1 °C 8.6 °C 1019.5 hPa Calm     90% 0 mm 213.00 W/m2
12:14 10.2 °C 8.6 °C 1019.5 hPa Calm     90% 0 mm 199.00 W/m2
12:19 10.3 °C 8.7 °C 1019.2 hPa Calm     90% 0 mm 190.00 W/m2
12:24 10.4 °C 8.9 °C 1019.2 hPa Calm     90% 0 mm 211.00 W/m2
12:29 10.5 °C 8.9 °C 1019.2 hPa Calm     90% 0 mm 373.00 W/m2
12:34 10.7 °C 9.3 °C 1019.2 hPa SE 5.6 km/h 2.7 km/h 91% 0 mm 422.00 W/m2
12:39 10.9 °C 9.4 °C 1019.2 hPa SSE 5.6 km/h 3.5 km/h 90% 0 mm 345.00 W/m2
12:44 10.9 °C 9.2 °C 1018.8 hPa Calm     89% 0 mm 243.00 W/m2
12:49 11 °C 9.4 °C 1018.8 hPa Calm     90% 0 mm 283.00 W/m2
12:54 11.1 °C 9.3 °C 1018.8 hPa Calm     89% 0 mm 323.00 W/m2
12:59 11.2 °C 9.4 °C 1018.8 hPa South 1.6 km/h 3.9 km/h 89% 0 mm 278.00 W/m2
13:04 11.2 °C 9.4 °C 1018.8 hPa Calm     89% 0 mm 278.00 W/m2
13:09 11.3 °C 9.6 °C 1018.8 hPa Calm     89% 0 mm 251.00 W/m2
13:14 11.4 °C 9.7 °C 1018.8 hPa SE 3.2 km/h 1.6 km/h 89% 0 mm 260.00 W/m2
13:19 11.4 °C 9.7 °C 1018.8 hPa South 7.4 km/h 1 km/h 89% 0 mm 241.00 W/m2
13:24 11.4 °C 9.4 °C 1018.8 hPa Calm     88% 0 mm 253.00 W/m2
13:29 11.4 °C 9.5 °C 1018.8 hPa Calm     88% 0 mm 241.00 W/m2
13:34 11.5 °C 9.6 °C 1018.8 hPa SSW 3.7 km/h 2.4 km/h 88% 0 mm 237.00 W/m2
13:39 11.4 °C 9.3 °C 1018.8 hPa Calm     87% 0 mm 246.00 W/m2
13:44 11.5 °C 9.6 °C 1018.8 hPa Calm     88% 0 mm 251.00 W/m2
13:49 11.7 °C 9.7 °C 1018.8 hPa Calm     88% 0 mm 260.00 W/m2
13:54 11.7 °C 9.6 °C 1018.8 hPa West 5.6 km/h 3.2 km/h 87% 0 mm 283.00 W/m2
13:59 11.8 °C 9.7 °C 1018.8 hPa SW 3.7 km/h 2.4 km/h 87% 0 mm 294.00 W/m2
14:04 11.8 °C 9.7 °C 1018.8 hPa SSW 3.7 km/h 1.4 km/h 87% 0 mm 304.00 W/m2
14:09 11.8 °C 9.7 °C 1018.5 hPa SW 5.6 km/h 3.7 km/h 87% 0 mm 302.00 W/m2
14:14 11.9 °C 9.8 °C 1018.5 hPa WNW 7.4 km/h 4.3 km/h 87% 0 mm 290.00 W/m2
14:19 11.9 °C 9.8 °C 1018.5 hPa West 5.6 km/h 1.9 km/h 87% 0 mm 269.00 W/m2
14:24 12 °C 9.9 °C 1018.5 hPa West 7.4 km/h 3.9 km/h 87% 0 mm 274.00 W/m2
14:29 12 °C 9.9 °C 1018.5 hPa WNW 7.4 km/h 5 km/h 87% 0 mm 299.00 W/m2
14:34 12.1 °C 10.1 °C 1018.5 hPa West 5.6 km/h 3.9 km/h 88% 0 mm 285.00 W/m2
14:39 12.1 °C 10.2 °C 1018.5 hPa NW 5.6 km/h 2.4 km/h 88% 0 mm 290.00 W/m2
14:45 12.2 °C 10.3 °C 1018.5 hPa WSW 7.4 km/h 3.4 km/h 88% 0 mm 250.00 W/m2
14:49 12.2 °C 10.1 °C 1018.5 hPa WSW 7.4 km/h 3.5 km/h 87% 0 mm 229.00 W/m2
14:54 12.2 °C 10.1 °C 1018.5 hPa West 9.3 km/h 4.7 km/h 87% 0 mm 225.00 W/m2
14:59 12.2 °C 10.2 °C 1018.5 hPa WSW 5.6 km/h 4 km/h 88% 0 mm 234.00 W/m2
15:04 12.2 °C 10.2 °C 1018.5 hPa West 5.6 km/h 3.1 km/h 88% 0 mm 221.00 W/m2
15:09 12.2 °C 10.2 °C 1018.5 hPa WSW 7.4 km/h 4.8 km/h 88% 0 mm 223.00 W/m2
15:14 12.2 °C 10.3 °C 1018.5 hPa WSW 5.6 km/h 3.7 km/h 88% 0 mm 223.00 W/m2
15:19 12.3 °C 10.3 °C 1018.2 hPa WSW 5.6 km/h 2.3 km/h 88% 0 mm 216.00 W/m2
15:24 12.3 °C 10.4 °C 1018.2 hPa WNW 5.6 km/h 1.8 km/h 88% 0 mm 214.00 W/m2
15:29 12.4 °C 10.5 °C 1018.2 hPa WNW 5.6 km/h 5.1 km/h 88% 0 mm 207.00 W/m2
15:34 12.4 °C 10.3 °C 1018.2 hPa NW 9.3 km/h 6 km/h 87% 0 mm 197.00 W/m2
15:39 12.3 °C 10.4 °C 1018.2 hPa NW 5.6 km/h 4.8 km/h 88% 0 mm 190.00 W/m2
15:44 12.3 °C 10.4 °C 1018.2 hPa WNW 7.4 km/h 3.7 km/h 88% 0 mm 181.00 W/m2
15:49 12.3 °C 10.3 °C 1018.2 hPa NW 5.6 km/h 2.7 km/h 88% 0 mm 176.00 W/m2
15:54 12.3 °C 10.4 °C 1018.2 hPa NW 3.7 km/h 2.3 km/h 88% 0 mm 174.00 W/m2
15:59 12.3 °C 10.4 °C 1018.2 hPa NW 7.4 km/h 3.5 km/h 88% 0 mm 158.00 W/m2
16:04 12.3 °C 10.3 °C 1018.2 hPa WNW 5.6 km/h 3.7 km/h 88% 0 mm 160.00 W/m2
16:10 12.3 °C 10.3 °C 1018.2 hPa NW 5.6 km/h 2.3 km/h 88% 0 mm 172.00 W/m2
16:14 12.3 °C 10.4 °C 1018.2 hPa NNW 7.4 km/h 4.2 km/h 88% 0 mm 174.00 W/m2
16:20 12.3 °C 10.3 °C 1018.2 hPa NW 5.6 km/h 5.1 km/h 88% 0 mm 165.00 W/m2
16:24 12.3 °C 10.3 °C 1018.2 hPa NNW 6.4 km/h 3.9 km/h 88% 0 mm 153.00 W/m2
16:29 12.3 °C 10.3 °C 1018.2 hPa WNW 7.4 km/h 4.7 km/h 88% 0 mm 160.00 W/m2
16:35 12.2 °C 10.3 °C 1018.2 hPa NNW 8 km/h 6.8 km/h 88% 0 mm 174.00 W/m2
16:39 12.2 °C 10.4 °C 1018.2 hPa NW 7.4 km/h 5.3 km/h 89% 0 mm 202.00 W/m2
16:44 12.2 °C 10.4 °C 1018.2 hPa NNW 11.1 km/h 9.5 km/h 89% 0 mm 244.00 W/m2
16:49 12.4 °C 10.8 °C 1018.2 hPa NNW 13 km/h 8.7 km/h 90% 0 mm 348.00 W/m2
16:54 12.7 °C 10.9 °C 1018.2 hPa NNW 13 km/h 9.3 km/h 89% 0 mm 364.00 W/m2
16:59 12.7 °C 10.7 °C 1017.8 hPa North 13 km/h 8.4 km/h 88% 0 mm 225.00 W/m2
17:04 12.7 °C 10.9 °C 1018.2 hPa NNE 11.1 km/h 9.7 km/h 89% 0 mm 526.00 W/m2
17:09 12.8 °C 11.1 °C 1018.2 hPa NNW 9.3 km/h 6.6 km/h 89% 0 mm 265.00 W/m2
17:14 12.9 °C 11.1 °C 1018.2 hPa North 9.3 km/h 6.6 km/h 89% 0 mm 316.00 W/m2
17:19 13 °C 11.1 °C 1018.2 hPa North 11.1 km/h 7.2 km/h 88% 0 mm 214.00 W/m2
17:24 12.9 °C 10.8 °C 1018.2 hPa North 9.3 km/h 4.7 km/h 87% 0 mm 329.00 W/m2
17:29 13 °C 10.9 °C 1018.2 hPa NNW 7.4 km/h 5.8 km/h 87% 0 mm 336.00 W/m2
17:34 13 °C 10.9 °C 1018.2 hPa North 7.4 km/h 3.9 km/h 87% 0 mm 156.00 W/m2
17:39 13 °C 10.9 °C 1018.2 hPa NE 7.4 km/h 6 km/h 87% 0 mm 144.00 W/m2
17:44 12.9 °C 10.8 °C 1018.2 hPa North 5.6 km/h 3.7 km/h 87% 0 mm 139.00 W/m2
17:50 12.8 °C 10.6 °C 1018.2 hPa North 5.6 km/h 2.4 km/h 86% 0 mm 113.00 W/m2
17:54 12.8 °C 10.5 °C 1018.2 hPa North 3.7 km/h 2.1 km/h 86% 0 mm 93.00 W/m2
17:59 12.8 °C 10.7 °C 1018.2 hPa North 5.6 km/h 2.4 km/h 87% 0 mm 84.00 W/m2
18:04 12.8 °C 10.7 °C 1018.2 hPa North 5.6 km/h 2.7 km/h 87% 0 mm 90.00 W/m2
18:09 12.8 °C 10.7 °C 1018.5 hPa NNE 5.6 km/h 4.5 km/h 87% 0 mm 90.00 W/m2
18:14 12.7 °C 10.6 °C 1018.5 hPa NNE 5.6 km/h 2.9 km/h 87% 0 mm 83.00 W/m2
18:19 12.6 °C 10.5 °C 1018.5 hPa NNE 5.6 km/h 3.1 km/h 87% 0 mm 76.00 W/m2
18:24 12.6 °C 10.6 °C 1018.5 hPa NNE 5.6 km/h 2.3 km/h 88% 0 mm 51.00 W/m2
18:29 12.4 °C 10.5 °C 1018.5 hPa NNE 5.6 km/h 2.7 km/h 88% 0 mm 32.00 W/m2
18:34 12.4 °C 10.4 °C 1018.5 hPa NNE 5.6 km/h 3.5 km/h 88% 0 mm 30.00 W/m2
18:39 12.3 °C 10.5 °C 1018.5 hPa NNE 5.6 km/h 1.8 km/h 89% 0 mm 23.00 W/m2
18:44 12.2 °C 10.4 °C 1018.5 hPa NNE 3.7 km/h 1.9 km/h 89% 0 mm 23.00 W/m2
18:49 12.1 °C 10.3 °C 1018.5 hPa NNE 3.7 km/h 1.6 km/h 89% 0 mm 26.00 W/m2
18:55 12.1 °C 10.3 °C 1018.5 hPa Calm     89% 0 mm 19.00 W/m2
18:59 12.1 °C 10.3 °C 1018.5 hPa Calm     89% 0 mm 12.00 W/m2
19:04 12 °C 10.4 °C 1018.5 hPa Calm     90% 0 mm 7.00 W/m2
19:09 11.9 °C 10.3 °C 1018.5 hPa Calm     90% 0 mm 0.00 W/m2
19:14 11.9 °C 10.3 °C 1018.8 hPa Calm     90% 0 mm 0.00 W/m2
19:19 11.9 °C 10.3 °C 1018.8 hPa NNE 1.9 km/h   90% 0 mm 0.00 W/m2
19:24 11.8 °C 10.2 °C 1018.8 hPa Calm     90% 0 mm 0.00 W/m2
19:29 11.8 °C 10.2 °C 1018.8 hPa Calm     90% 0 mm 0.00 W/m2
19:34 11.8 °C 10.2 °C 1018.5 hPa Calm     90% 0 mm 0.00 W/m2
19:39 11.7 °C 10.1 °C 1018.5 hPa Calm     90% 0 mm 0.00 W/m2
19:45 11.7 °C 10.1 °C 1018.5 hPa Calm     90% 0 mm 0.00 W/m2
19:49 11.6 °C 10 °C 1018.5 hPa Calm     90% 0 mm 0.00 W/m2
19:54 11.6 °C 10.1 °C 1018.8 hPa NNE 3.7 km/h 0.5 km/h 91% 0 mm 0.00 W/m2
19:59 11.6 °C 10.1 °C 1018.8 hPa Calm     91% 0 mm 0.00 W/m2
20:04 11.6 °C 10.1 °C 1018.8 hPa NNE 1.9 km/h 0.2 km/h 91% 0 mm 0.00 W/m2
20:09 11.6 °C 10.1 °C 1019.2 hPa NW 5.6 km/h 2.1 km/h 91% 0 mm 0.00 W/m2
20:15 11.6 °C 10.1 °C 1019.2 hPa NW 1.9 km/h 0.3 km/h 91% 0 mm 0.00 W/m2
20:19 11.6 °C 10.2 °C 1019.2 hPa NW 3.7 km/h 1.8 km/h 91% 0 mm 0.00 W/m2
20:24 11.6 °C 10 °C 1019.5 hPa NW 5.6 km/h 2.4 km/h 90% 0 mm 0.00 W/m2
20:29 11.6 °C 10.2 °C 1019.5 hPa NW 3.7 km/h 0.5 km/h 91% 0 mm 0.00 W/m2
20:34 11.6 °C 10.1 °C 1019.5 hPa Calm     91% 0 mm 0.00 W/m2
20:39 11.6 °C 10.1 °C 1019.5 hPa NW 5.6 km/h 1.9 km/h 91% 0 mm 0.00 W/m2
20:44 11.5 °C 10.1 °C 1019.5 hPa WNW 5.6 km/h 2.7 km/h 91% 0 mm 0.00 W/m2
20:49 11.4 °C 10 °C 1019.5 hPa NW 3.7 km/h 1.1 km/h 91% 0 mm 0.00 W/m2
20:55 11.4 °C 10 °C 1019.9 hPa NW 1.9 km/h   91% 0 mm 0.00 W/m2
20:59 11.4 °C 10 °C 1019.9 hPa Calm   0.6 km/h 91% 0 mm 0.00 W/m2
21:04 11.4 °C 9.9 °C 1019.9 hPa Calm   1 km/h 91% 0 mm 0.00 W/m2
21:09 11.3 °C 9.9 °C 1019.9 hPa NNW 3.7 km/h 2.4 km/h 91% 0 mm 0.00 W/m2
21:15 11.3 °C 9.9 °C 1019.9 hPa NNW 3.7 km/h 1.8 km/h 91% 0 mm 0.00 W/m2
21:19 11.2 °C 9.8 °C 1020.2 hPa NNW 5.6 km/h 3.2 km/h 91% 0 mm 0.00 W/m2
21:24 11.2 °C 9.8 °C 1020.2 hPa NNW 5.6 km/h 2.6 km/h 91% 0 mm 0.00 W/m2
21:29 11.1 °C 9.7 °C 1020.2 hPa NNW 3.7 km/h 1 km/h 91% 0 mm 0.00 W/m2
21:34 11.1 °C 9.7 °C 1020.2 hPa NNW 3.7 km/h 0.3 km/h 91% 0 mm 0.00 W/m2
21:39 11.1 °C 9.7 °C 1020.2 hPa NNW 1.9 km/h 0.8 km/h 91% 0 mm 0.00 W/m2
21:45 11 °C 9.6 °C 1020.2 hPa Calm     91% 0 mm 0.00 W/m2
21:49 11 °C 9.6 °C 1020.2 hPa NNW 3.7 km/h 2.6 km/h 91% 0 mm 0.00 W/m2
21:54 10.9 °C 9.6 °C 1020.2 hPa Calm     91% 0 mm 0.00 W/m2
21:59 10.8 °C 9.4 °C 1020.2 hPa Calm     91% 0 mm 0.00 W/m2
22:04 10.8 °C 9.4 °C 1020.2 hPa Calm     91% 0 mm 0.00 W/m2
22:09 10.7 °C 9.3 °C 1020.2 hPa Calm     91% 0 mm 0.00 W/m2
22:14 10.6 °C 9.4 °C 1020.2 hPa Calm     92% 0 mm 0.00 W/m2
22:19 10.6 °C 9.3 °C 1020.2 hPa Calm     92% 0 mm 0.00 W/m2
22:24 10.4 °C 9.2 °C 1020.2 hPa Calm     92% 0 mm 0.00 W/m2
22:29 10.4 °C 9.2 °C 1020.2 hPa Calm     92% 0 mm 0.00 W/m2
22:35 10.3 °C 9.1 °C 1020.2 hPa Calm     92% 0 mm 0.00 W/m2
22:39 10.3 °C 9.2 °C 1020.2 hPa Calm     93% 0 mm 0.00 W/m2
22:44 10.2 °C 9.2 °C 1020.2 hPa Calm     93% 0 mm 0.00 W/m2
22:49 10.1 °C 8.9 °C 1020.2 hPa Calm     92% 0 mm 0.00 W/m2
22:54 10 °C 8.9 °C 1020.2 hPa Calm     93% 0 mm 0.00 W/m2
22:59 9.9 °C 8.9 °C 1020.2 hPa Calm     93% 0 mm 0.00 W/m2
23:04 9.9 °C 8.9 °C 1020.2 hPa Calm     93% 0 mm 0.00 W/m2
23:09 9.9 °C 8.9 °C 1020.2 hPa Calm     93% 0 mm 0.00 W/m2
23:14 9.9 °C 8.8 °C 1020.2 hPa Calm     93% 0 mm 0.00 W/m2
23:20 9.7 °C 8.7 °C 1020.2 hPa Calm     93% 0 mm 0.00 W/m2
23:24 9.7 °C 8.6 °C 1020.2 hPa Calm     93% 0 mm 0.00 W/m2
23:30 9.6 °C 8.5 °C 1020.2 hPa Calm     93% 0 mm 0.00 W/m2
23:34 9.5 °C 8.4 °C 1020.2 hPa Calm     93% 0 mm 0.00 W/m2
23:39 9.4 °C 8.3 °C 1020.2 hPa Calm     93% 0 mm 0.00 W/m2
23:45 9.3 °C 8.3 °C 1020.2 hPa Calm     93% 0 mm 0.00 W/m2
23:49 9.3 °C 8.2 °C 1020.2 hPa Calm     93% 0 mm 0.00 W/m2
23:54 9.2 °C 8.1 °C 1020.2 hPa Calm     93% 0 mm 0.00 W/m2
23:59 9.1 °C 8.2 °C 1020.2 hPa Calm     94% 0 mm 0.00 W/m2
Bourbonnais, Illinois, USA
Compliments of Weather Underground - 4 mb